カタログに戻る

STARLINK-32139

運用中通信VLEO
NORAD 61510·PAYLOAD·🇺🇸 United States

打ち上げ Oct 15, 2024 から Cape Canaveral Space Force Station

Loading…

次のパス (今後24時間)

TLE

最新Source: CelesTrak SupGP

元期: Sep 15, 2026, 03:21 UTC

1 61510C 24183B   26258.14006944  .00058853  00000+0  18924-2 0  2584
2 61510  53.1598 341.0408 0001222  89.8502  82.2454 15.31675747    17

AllMySatでSTARLINK-32139をリアルタイム追跡

Download on the App Store